Starlink 11163

operational
NORAD ID: 60047 Int'l Des: 2024-112 Owner: SPXS Country: US Constellation: starlink
LEOCIRCULAR

Über Starlink 11163

Beschreibung wird geladen...

Live-Position

3D-Globus wird geladen...

Nächste Überflüge

Höhenverlauf

Altitude vs Time

uPlot chart will show altitude changes over time

Zweizeiliger Elementsatz

1 60047U 24112K 25353.84949387 -.00000275 00000-0 25895-5 0 9996
2 60047 53.1598 299.6731 0001336 80.9199 279.1970 15.69704941 88441
Epoch: 19. Dez. 2025 • Age: 7 hours

Aktueller Status

Höhe 365.7 km
Geschwindigkeit 7.69 km/s
Subsatellitenpunkt -19.60°S, 5.86°W
Startdatum 8. Juni 2024
Alter 1.5 years
Typ internet

Technische Details

Klassifizierung Payload
Masse 960.00 kg
Trockenmasse 910.00 kg
Gesamtmasse 960.00 kg
Länge 0.30 m
Durchmesser 4.10 m
Spannweite 29.00 m
Form Box + pan
Hersteller SPXS
Bus-Typ Starlink V2MD
Phasenstatus In Orbit
Besitzer/Staat SPXS/US

Große Konstellationen

Loading constellations...